This is the latest recevied weather packets stored in our database for station/object OM8AGG-15. If no packets are shown the sender has not sent any weather packets the latest 10 day(s).
| Time | Temp. | Humidity | Pressure | Rain* | Wind** | Luminosity | Snow |
|---|---|---|---|---|---|---|---|
| 1787887142 | 14.44° C | 79% | 1021.1 hPa | - | - | - | - |
| 1787886242 | 14.44° C | 79% | 1021 hPa | - | - | - | - |
| 1787885341 | 15° C | 79% | 1021 hPa | - | - | - | - |
| 1787884441 | 14.44° C | 79% | 1021.1 hPa | - | - | - | - |
| 1787883541 | 13.89° C | 79% | 1021.2 hPa | - | - | - | - |
| 1787882641 | 15° C | 79% | 1021.2 hPa | - | - | - | - |
| 1787881741 | 15° C | 79% | 1021.3 hPa | - | - | - | - |
| 1787880841 | 15° C | 79% | 1021.4 hPa | - | - | - | - |
| 1787879940 | 15.56° C | 79% | 1021.4 hPa | - | - | - | - |
| 1787879040 | 16.11° C | 79% | 1021.4 hPa | - | - | - | - |
| 1787878143 | 16.11° C | 79% | 1021.5 hPa | - | - | - | - |
| 1787878140 | 16.11° C | 79% | 1021.5 hPa | - | - | - | - |
| 1787877240 | 16.11° C | 79% | 1021.3 hPa | - | - | - | - |
| 1787876340 | 16.11° C | 79% | 1021.4 hPa | - | - | - | - |
| 1787875440 | 16.11° C | 79% | 1021.6 hPa | - | - | - | - |
| 1787874540 | 16.67° C | 79% | 1021.4 hPa | - | - | - | - |
| 1787873640 | 16.67° C | 79% | 1021.3 hPa | - | - | - | - |
| 1787872739 | 16.67° C | 79% | 1021.5 hPa | - | - | - | - |
| 1787871839 | 16.67° C | 79% | 1021.3 hPa | - | - | - | - |
| 1787870942 | 16.67° C | 79% | 1021.5 hPa | - | - | - | - |
| 1787870939 | 16.67° C | 79% | 1021.5 hPa | - | - | - | - |
| 1787870039 | 16.67° C | 79% | 1021.5 hPa | - | - | - | - |
| 1787869139 | 17.22° C | 80% | 1021.5 hPa | - | - | - | - |
| 1787868239 | 17.22° C | 80% | 1021.6 hPa | - | - | - | - |
| 1787867339 | 17.78° C | 80% | 1021.5 hPa | - | - | - | - |
* Rain since midnight (hover to see other rain measurements)
** Current wind speed in m/s (hover to see current wind gust speed)